TimeEDT,TemperatureF,Dew PointF,Humidity,Sea Level PressureIn,VisibilityMPH,Wind Direction,Wind SpeedMPH,Gust SpeedMPH,PrecipitationIn,Events,Conditions,WindDirDegrees,DateUTC
12:54 AM,64.0,60.1,87,29.90,-9999.0,NE,3.5,-,N/A,,Unknown,40,2013-06-18 04:54:00
1:54 AM,64.0,60.1,87,29.90,-9999.0,Calm,Calm,-,N/A,,Unknown,0,2013-06-18 05:54:00
2:54 AM,63.0,60.1,90,29.89,-9999.0,Calm,Calm,-,N/A,,Unknown,0,2013-06-18 06:54:00
3:54 AM,62.1,59.0,90,29.87,-9999.0,Calm,Calm,-,N/A,,Unknown,0,2013-06-18 07:54:00
4:54 AM,61.0,59.0,93,29.88,-9999.0,Calm,Calm,-,N/A,,Unknown,0,2013-06-18 08:54:00
5:54 AM,61.0,59.0,93,29.88,-9999.0,Calm,Calm,-,N/A,,Unknown,0,2013-06-18 09:54:00
6:54 AM,63.0,60.1,90,29.89,-9999.0,Calm,Calm,-,N/A,,Unknown,0,2013-06-18 10:54:00
7:54 AM,66.9,62.1,84,29.90,-9999.0,Calm,Calm,-,N/A,,Unknown,0,2013-06-18 11:54:00
8:54 AM,73.9,63.0,68,29.89,-9999.0,Calm,Calm,-,N/A,,Unknown,0,2013-06-18 12:54:00
9:54 AM,75.0,63.0,66,29.88,-9999.0,Calm,Calm,-,N/A,,Unknown,0,2013-06-18 13:54:00
10:54 AM,79.0,64.0,60,29.87,-9999.0,Calm,Calm,-,N/A,,Unknown,0,2013-06-18 14:54:00
11:54 AM,80.1,61.0,52,29.86,-9999.0,Calm,Calm,-,N/A,,Unknown,0,2013-06-18 15:54:00
12:54 PM,81.0,63.0,54,29.83,-9999.0,Calm,Calm,-,N/A,,Unknown,0,2013-06-18 16:54:00
1:54 PM,79.0,66.9,66,29.83,-9999.0,Calm,Calm,-,N/A,,Unknown,0,2013-06-18 17:54:00
2:54 PM,75.9,68.0,76,29.82,-9999.0,Calm,Calm,-,N/A,,Unknown,0,2013-06-18 18:54:00
3:54 PM,71.1,69.1,93,29.83,-9999.0,NE,3.5,-,0.09,,Unknown,50,2013-06-18 19:54:00
4:54 PM,66.9,63.0,87,29.85,-9999.0,Calm,Calm,-,0.35,,Unknown,0,2013-06-18 20:54:00
5:54 PM,68.0,66.0,93,29.85,-9999.0,NE,3.5,-,0.01,,Unknown,40,2013-06-18 21:54:00
6:54 PM,66.9,64.0,90,29.86,-9999.0,Calm,Calm,-,N/A,,Unknown,0,2013-06-18 22:54:00
7:54 PM,64.9,62.1,90,29.86,-9999.0,Variable,5.8,-,N/A,,Unknown,0,2013-06-18 23:54:00
8:54 PM,64.0,60.1,87,29.88,-9999.0,Calm,Calm,-,N/A,,Unknown,0,2013-06-19 00:54:00
9:54 PM,63.0,59.0,87,29.89,-9999.0,Calm,Calm,-,N/A,,Unknown,0,2013-06-19 01:54:00
10:54 PM,61.0,55.9,83,29.90,-9999.0,Variable,4.6,-,N/A,,Unknown,0,2013-06-19 02:54:00
11:54 PM,59.0,55.0,87,29.91,-9999.0,NE,4.6,-,N/A,,Unknown,40,2013-06-19 03:54:00